Location: Unspecified
(30.2229°N, 0.0000°E)
Time: 15:56:03
(UTC+00:00)

ESSA 1 - Visible Passes

Search period start: 04 April 2026 00:00
Search period end: 14 April 2026 00:00
Orbit: 675 x 788 km, 97.8° (Epoch: 29 March)

Date Brightness Start Highest point End Pass type
(mag) Time Alt. Az. Time Alt. Az. Time Alt. Az.
4 Apr 6.7 19:56:59 10° S 20:01:29 47° W 20:06:07 10° NNW visible
5 Apr 6.0 19:10:21 10° SSE 19:14:51 49° ENE 19:19:31 10° N visible
5 Apr 8.7 20:51:42 10° WSW 20:53:28 12° W 20:55:14 10° WNW visible
6 Apr 7.0 20:02:04 10° SSW 20:06:29 41° W 20:11:03 10° NNW visible
7 Apr 5.9 19:15:13 10° SSE 19:19:49 57° ENE 19:24:36 10° N visible
7 Apr 8.9 20:58:02 10° W 20:58:30 10° W 20:58:59 10° W visible
8 Apr 7.3 20:07:10 10° SSW 20:11:30 36° W 20:15:57 10° NNW visible
9 Apr 5.8 19:20:06 10° SSE 19:24:47 66° ENE 19:29:39 10° N visible
10 Apr 7.6 20:12:18 10° SSW 20:16:30 31° W 20:20:50 10° NW visible
11 Apr 5.8 19:25:01 10° SSE 19:29:46 77° ENE 19:34:42 10° N visible
12 Apr 7.8 20:17:29 10° SSW 20:21:31 27° W 20:25:42 10° NW visible
13 Apr 5.8 19:29:57 10° SSE 19:34:45 88° ENE 19:39:44 10° N visible
